STARLINK-2510 (48329 NORAD) Tracking and Keplerian Element Data

This shows tracking and keplerian element data for the satellite.

Feedback or suggestion? Click here.




ElementValue
Catalog48329
NameSTARLINK-2510
Epoch Orbit1424
Epoch Day210.86697765
Epoch Year2021
RAAN100.5786
Inclination53.0559
Eccentricity0.0001602
Argument of Perigee81.1531
Mean Anonmoly278.9639
Mean Motion15.06397275
Decay Rate-2.04E-06
L11 48329U 21036BF 21210.86697765 -.00000204 00000-0 52345-5 0 9999
L22 48329 53.0559 100.5786 0001602 81.1531 278.9639 15.06397275 14240

Live tracking and technical data element details for STARLINK-2510 (NORAD 48329). STARLINK-2510 can be tracked NOW for your location showing map with azimuth and elevation plus other details from your city location.

Track the satellite on the map from your city or location and see movement details for azimuth, elevation, latitude, longitude, range, height, and movement on the map or in text.







IsCatalogInMostPopularTable: catalog: 48329, numindb: 35
Update: records affected: 1



GetName: 48329 STARLINK-2510

Hit Count: updated at: Sat, 31 Jul 2021 15:07:04 GMT